COSMOS 1544

Satellite information

Favourite Embed

Satellite Type and Status

PAYLOADDECAYED

Key statistics

Satellite COSMOS 1544 at a glance.

Uptime

14740

Days in orbit

Revolutions

≈ 15.6

Per day

Orbit

LEO

Low Earth Orbit

Inclination

82.5

Latest

Satellite identification and parameters

Extended collection of information and parameters for COSMOS 1544.

Object identification

Identified? True

Debris? False

Object name: COSMOS 1544

International designator: 1984-027A

Object number (NORAD): 14819

Object ID (CCSDS): 14819

Country: COMMONWEALTH OF INDEPENDENT STATES (CIS)

Current information (Y/N): Y

RCS size: LARGE

Orbital parameters

Decay date: July 23, 2024

Period: 92.361 minutes

Inclination: 82.4664 deg

SMA: 6768.394 km

Apoapsis: 395.746 km

Periapsis: 384.772 km

RAAN: 83.4106 deg

Eccentricy: 0.0008107

Argument of periapsis: 75.0823 deg

Mean anomaly: 285.133 deg

Mean motion: 15.59101131 rev/day

Mean motion (dot): 0.00063017 rev/day2

B* drag term: 0.00080116 1/REarth

Two-line elements (TLE)

Creation date: Feb. 11, 2024, 5:15 p.m.

Reference frame: TEME

Reference center: EARTH

Epoch: Feb. 11, 2024, 2:18 p.m. UTC

TLE line 0: 0 COSMOS 1544

TLE line 1: 1 14819U 84027A 24042.59617081 .00063017 00000-0 80116-3 0 9999

TLE line 2: 2 14819 82.4664 83.4106 0008107 75.0823 285.1330 15.59101131187496

Live tracking on map

Satellite COSMOS 1544 has decayed and is no longer in orbit. No tracking available.

In-orbit conjunctions

Satellite COSMOS 1544 has decayed and is no longer in orbit. No conjunctions available.

Associated space launch

Tselina-D satellites provided detailed observation of radio sources detected by the smaller Tselina-O satellites as part of the Tselina ELINT system.

COSMOS 1544 was lifted into orbit during the mission ‘Tsiklon-3 | Tselina-D 45’, on board a Tsiklon-3 space rocket.

The launch took place on March 15, 1984, 5:05 p.m. from 32/2.

For more information about the launch, click the button.

Launch to space Tsiklon-3 | Tselina-D 45
Tsiklon-3 | Tselina-D 45

Agency: N/A

Status: Launch Successful

Launch date: March 15, 1984, 5:05 p.m. UTC

Rocket: Tsiklon-3

Launch pad: 32/2

Location: Plesetsk Cosmodrome, Russian Federation

...

Latest news about this satellite

There are no fresh news available about this satellite. Check back as we update our databases every day.


Newsletter sign-up

Weekly statistics, charts and insights to help you stay on top of the space industry.